Wayne, NE

4:50 AM CDT on October 01, 2016 (GMT -0500)
Wayne Municipal

Weather History for KLCG - March, 2012

Change the Weather History Date:

Wednesday, March 14, 2012

  Actual Average (KOFK) Record (KOFK)
Temperature  
Mean Temperature 58 °F 37 °F  
Max Temperature 73 °F 48 °F 81 °F (1935)
Min Temperature 44 °F 26 °F -2 °F (1897)
Degree Days  
Heating Degree Days 6 28  
Month to date heating degree days 434  
Since 1 July heating degree days 5527  
Cooling Degree Days 0 0  
Month to date cooling degree days 0  
Year to date cooling degree days 0  
Growing Degree Days 8 (Base 50)    
Moisture  
Dew Point 39 °F    
Average Humidity 53    
Maximum Humidity 94    
Minimum Humidity 24    
Precipitation  
Precipitation 0.00 in 0.06 in 1.14 in (1913)
Month to date precipitation 0.63  
Year to date precipitation 1.98  
Snow  
Snow 0.00 in 0.20 in - ()
Month to date snowfall 2.4  
Since 1 July snowfall 25.2  
Snow Depth -    
Sea Level Pressure  
Sea Level Pressure 29.81 in    
Wind  
Wind Speed 9 mph (West)    
Max Wind Speed 16 mph    
Max Gust Speed 20 mph    
Visibility 10 miles    
Events      
T = Trace of Precipitation, MM = Missing Value Source: NWS Daily Summary

Daily Weather History Graph

Daily Weather History Graph

Search for Another Location

Airport or City:

Trip Planner

Search our weather history database for the weather conditions in past years. The results will help you decide how hot, cold, wet, or windy it might be!

Date:

Astronomy

Mar. 14, 2012 Rise Set
Actual Time 7:40 AM CDT 7:33 PM CDT
Civil Twilight 7:12 AM CDT 8:01 PM CDT
Nautical Twilight 6:40 AM CDT 8:34 PM CDT
Astronomical Twilight 6:07 AM CDT 9:07 PM CDT
Moon 2:17 AM CDT (3/14) 11:45 AM CDT (3/14)
Length of Visible Light 12h 49m
Length of Day
11h 53m
Waning Gibbous, 54% of the Moon is Illuminated
Mar 14
Waning Gibbous
Mar 14
Last Quarter
Mar 22
New
Mar 30
First Quarter
Apr 6
Full

Hourly Weather History & Observations

Time (CDT) Temp. Windchill Dew Point Humidity Pressure Visibility Wind Dir Wind Speed Gust Speed Precip Events Conditions
12:15 AM 56.8 °F - 45.5 °F 66% 29.72 in 10.0 mi South 10.4 mph - N/A   Clear
12:35 AM 55.0 °F - 45.1 °F 69% 29.72 in 10.0 mi South 13.8 mph - N/A   Clear
12:55 AM 55.2 °F - 45.1 °F 69% 29.71 in 10.0 mi South 13.8 mph - N/A   Clear
1:15 AM 54.5 °F - 44.8 °F 70% 29.71 in 10.0 mi South 10.4 mph - N/A   Clear
1:35 AM 54.7 °F - 44.8 °F 69% 29.71 in 10.0 mi SW 4.6 mph - N/A   Clear
1:55 AM 55.8 °F - 45.5 °F 68% 29.71 in 10.0 mi SW 8.1 mph - N/A   Clear
2:15 AM 57.2 °F - 45.9 °F 66% 29.71 in 10.0 mi SW 9.2 mph - N/A   Clear
2:35 AM 57.7 °F - 46.4 °F 66% 29.71 in 10.0 mi SSW 11.5 mph - N/A   Clear
2:55 AM 57.2 °F - 46.4 °F 67% 29.71 in 10.0 mi SSW 10.4 mph - N/A   Clear
3:15 AM 56.5 °F - 46.6 °F 69% 29.71 in 10.0 mi SW 11.5 mph - N/A   Clear
3:35 AM 55.4 °F - 46.4 °F 72% 29.70 in 10.0 mi SSW 10.4 mph - N/A   Clear
3:55 AM 55.4 °F - 46.6 °F 72% 29.70 in 10.0 mi SW 11.5 mph - N/A   Clear
4:15 AM 56.1 °F - 46.8 °F 71% 29.70 in 10.0 mi SW 13.8 mph - N/A   Clear
4:35 AM 54.9 °F - 46.4 °F 73% 29.71 in 10.0 mi SW 10.4 mph - N/A   Clear
4:55 AM 54.1 °F - 46.8 °F 76% 29.71 in 10.0 mi SW 13.8 mph - N/A   Clear
5:15 AM 54.1 °F - 46.6 °F 76% 29.73 in 10.0 mi SW 16.1 mph - N/A   Clear
5:35 AM 51.1 °F - 46.4 °F 84% 29.74 in 10.0 mi SSW 5.8 mph - N/A   Clear
5:55 AM 51.8 °F - 46.6 °F 82% 29.74 in 10.0 mi South 9.2 mph - N/A   Clear
6:15 AM 51.3 °F - 46.4 °F 83% 29.74 in 10.0 mi SSW 10.4 mph - N/A   Clear
6:35 AM 50.4 °F - 46.0 °F 85% 29.74 in 10.0 mi SW 9.2 mph - N/A   Clear
6:55 AM 46.9 °F - 44.1 °F 90% 29.76 in 10.0 mi South 4.6 mph - N/A   Clear
7:15 AM 46.4 °F 43.5 °F 43.5 °F 90% 29.76 in 10.0 mi SSW 5.8 mph - N/A   Clear
7:35 AM 46.2 °F 43.3 °F 43.3 °F 90% 29.76 in 10.0 mi SSW 5.8 mph - N/A   Clear
7:55 AM 44.1 °F 40.8 °F 42.3 °F 93% 29.77 in 10.0 mi SSW 5.8 mph - N/A   Clear
8:15 AM 44.1 °F 42.5 °F 42.4 °F 94% 29.77 in 10.0 mi South 3.5 mph - N/A   Clear
8:35 AM 48.2 °F - 44.4 °F 87% 29.78 in 10.0 mi SSW 3.5 mph - N/A   Clear
8:55 AM 48.7 °F - 44.6 °F 86% 29.79 in 10.0 mi SSW 3.5 mph - N/A   Clear
9:15 AM 50.0 °F - 45.1 °F 83% 29.81 in 10.0 mi SSW 3.5 mph - N/A   Clear
9:35 AM 53.2 °F - 45.0 °F 73% 29.82 in 10.0 mi Calm Calm - N/A   Clear
9:55 AM 57.2 °F - 43.7 °F 61% 29.82 in 10.0 mi Calm Calm - N/A   Clear
10:15 AM 62.4 °F - 36.0 °F 37% 29.82 in 10.0 mi NNW 11.5 mph 17.3 mph N/A   Clear
10:35 AM 63.7 °F - 34.0 °F 33% 29.83 in 10.0 mi NNW 12.7 mph - N/A   Clear
10:55 AM 65.7 °F - 32.5 °F 29% 29.83 in 10.0 mi NW 10.4 mph - N/A   Clear
11:35 AM 66.7 °F - 32.0 °F 27% 29.84 in 10.0 mi NNW 11.5 mph 18.4 mph N/A   Clear
11:55 AM 67.3 °F - 32.0 °F 27% 29.84 in 10.0 mi NW 11.5 mph 17.3 mph N/A   Clear
12:15 PM 68.2 °F - 32.4 °F 26% 29.84 in 10.0 mi NW 10.4 mph 16.1 mph N/A   Clear
12:55 PM 68.7 °F - 32.7 °F 26% 29.84 in 10.0 mi NW 11.5 mph - N/A   Clear
1:35 PM 70.2 °F - 34.5 °F 27% 29.84 in 10.0 mi NW 10.4 mph - N/A   Clear
1:55 PM 71.2 °F - 34.7 °F 26% 29.84 in 10.0 mi North 11.5 mph - N/A   Clear
2:15 PM 71.4 °F - 34.9 °F 26% 29.84 in 10.0 mi NW 9.2 mph - N/A   Clear
2:35 PM 72.3 °F - 34.5 °F 25% 29.84 in 10.0 mi NW 8.1 mph 17.3 mph N/A   Clear
2:55 PM 72.7 °F - 35.1 °F 25% 29.84 in 10.0 mi NNW 11.5 mph - N/A   Clear
3:15 PM 73.2 °F - 35.2 °F 25% 29.84 in 10.0 mi NNW 11.5 mph 17.3 mph N/A   Clear
3:35 PM 73.2 °F - 34.9 °F 25% 29.84 in 10.0 mi NNW 13.8 mph - N/A   Clear
3:55 PM 73.0 °F - 34.7 °F 25% 29.85 in 10.0 mi North 11.5 mph 18.4 mph N/A   Clear
4:15 PM 73.0 °F - 34.3 °F 24% 29.85 in 10.0 mi NNW 12.7 mph 19.6 mph N/A   Clear
4:35 PM 72.5 °F - 33.8 °F 24% 29.86 in 10.0 mi NNW 12.7 mph - N/A   Clear
4:55 PM 72.3 °F - 34.3 °F 25% 29.86 in 10.0 mi NNW 12.7 mph 17.3 mph N/A   Clear
5:15 PM 72.1 °F - 34.7 °F 25% 29.87 in 10.0 mi North 10.4 mph - N/A   Clear
5:35 PM 71.4 °F - 34.2 °F 25% 29.87 in 10.0 mi North 12.7 mph - N/A   Clear
5:55 PM 70.7 °F - 34.3 °F 26% 29.88 in 10.0 mi NNW 10.4 mph - N/A   Clear
6:15 PM 69.8 °F - 34.0 °F 27% 29.88 in 10.0 mi NNW 12.7 mph - N/A   Clear
6:35 PM 68.4 °F - 34.2 °F 28% 29.88 in 10.0 mi North 6.9 mph - N/A   Clear
6:55 PM 66.2 °F - 34.3 °F 31% 29.89 in 10.0 mi NNW 8.1 mph - N/A   Clear
7:15 PM 64.9 °F - 33.4 °F 31% 29.90 in 10.0 mi NNW 9.2 mph - N/A   Clear
7:35 PM 62.1 °F - 32.9 °F 34% 29.91 in 10.0 mi NNW 5.8 mph - N/A   Clear
7:55 PM 59.4 °F - 32.9 °F 37% 29.91 in 10.0 mi NNW 4.6 mph - N/A   Clear
8:15 PM 54.9 °F - 32.9 °F 43% 29.92 in 10.0 mi Calm Calm - N/A   Clear
8:35 PM 51.8 °F - 32.2 °F 47% 29.93 in 10.0 mi Calm Calm - N/A   Clear
8:55 PM 50.7 °F - 32.2 °F 49% 29.93 in 10.0 mi Calm Calm - N/A   Clear
9:15 PM 51.1 °F - 32.5 °F 49% 29.93 in 10.0 mi Calm Calm - N/A   Clear
9:35 PM 51.6 °F - 32.2 °F 47% 29.94 in 10.0 mi Calm Calm - N/A   Clear
9:55 PM 46.9 °F - 31.1 °F 54% 29.95 in 10.0 mi Calm Calm - N/A   Clear
10:15 PM 45.7 °F - 31.6 °F 58% 29.95 in 10.0 mi Calm Calm - N/A   Clear
10:35 PM 45.9 °F - 32.0 °F 58% 29.96 in 10.0 mi Calm Calm - N/A   Clear
10:55 PM 43.9 °F - 31.6 °F 62% 29.96 in 10.0 mi Calm Calm - N/A   Clear
11:15 PM 44.2 °F - 31.3 °F 60% 29.96 in 10.0 mi Calm Calm - N/A   Clear
11:35 PM 41.7 °F - 31.8 °F 68% 29.96 in 10.0 mi Calm Calm - N/A   Clear
11:55 PM 36.7 °F - 29.3 °F 75% 29.95 in 10.0 mi Calm Calm - N/A   Clear